Powrót do katalogu

STARLINK-4390

AktywnyŁącznośćPO
NORAD 53653·PAYLOAD·🇺🇸 United States

Wystrzelony Aug 31, 2022 z Vandenberg Space Force Base

Loading…

Następne Przeloty (najbliższe 24 godziny)

TLE

ŚwieżeSource: CelesTrak SupGP

Epoka: Sep 14, 2026, 21:50 UTC

1 53653C 22105F   26257.91020833  .00810430  00000+0  13647-2 0  2575
2 53653  97.5866 148.4547 0002977 170.4013 339.0359 16.02351522    19

Śledź STARLINK-4390 w czasie rzeczywistym z AllMySat

Download on the App Store